Regional Weather Roundup
Issued by NWS

Home | Current Version | Previous Version | Text Only | Print | Product List | Glossary Off
Versions: 1 2 3 4 5 6 7 8 9 10 11 12 13 14 15 16 17 18 19 20 21 22 23 24 25 26 27 28 29 30 31 32 33 34 35 36 37 38 39 40 41 42 43 44 45 46 47 48 49 50

000
ASUS45 KPSR 280100
RWRAZ

ARIZONA HOURLY REGIONAL WEATHER ROUNDUP
NATIONAL WEATHER SERVICE PHOENIX AZ
600 PM MST THU AUG 27 2015

NOTE: FAIR INDICATES FEW OR NO CLOUDS BELOW 12,000 FEET WITH NO
SIGNIFICANT WEATHER AND/OR OBSTRUCTIONS TO VISIBILITY.

AZZ001>003-036-280200-
NORTHWEST ARIZONA

CITY           SKY/WX    TMP DP  RH WIND       PRES   REMARKS
KINGMAN        CLOUDY    95  51  22 N12       30.05F
$$

AZZ004>008-015-016-018-280200-
NORTH CENTRAL ARIZONA

CITY           SKY/WX    TMP DP  RH WIND       PRES   REMARKS
GRAND CANYON   MOSUNNY   78  42  27 W6        30.31S
WILLIAMS       CLOUDY    72  54  53 SE10      30.38S
PRESCOTT       PTSUNNY   76  61  59 S6        30.21R
FLAGSTAFF      NOT AVBL
PAYSON         CLOUDY    70  63  78 NW3       30.25R
PAGE           SUNNY     89  47  23 NE5       30.11F
$$

AZZ009>014-017-280200-
NORTHEAST ARIZONA

CITY           SKY/WX    TMP DP  RH WIND       PRES   REMARKS
WINSLOW        NOT AVBL
SAINT JOHNS    CLOUDY    74  58  57 SW7       30.24F
WINDOW ROCK    CLOUDY    77  50  38 CALM      30.29S
SHOW LOW       CLOUDY    64  55  72 SW3       30.31F
$$

AZZ023-280200-
GREATER PHOENIX AREA

CITY           SKY/WX    TMP DP  RH WIND       PRES   REMARKS
PHOENIX        LGT RAIN  84  71  65 SW8       29.88F
DEER VALLEY    LGT RAIN  90  61  37 CALM      29.92R
SCOTTSDALE     CLOUDY    84  69  60 CALM      29.94R
MESA-FALCON    PTSUNNY   90  64  43 NW12      29.91R
MESA-GATEWAY   LGT RAIN  88  66  48 NW9G15    29.94R
CHANDLER       PTSUNNY   84  72  65 NE7       29.91R
$$

AZZ027-028-280200-
SOUTHWEST MARICOPA COUNTY AND PINAL COUNTY

CITY           SKY/WX    TMP DP  RH WIND       PRES   REMARKS
CASA GRANDE    CLOUDY    93  61  33 N17G24    29.92R
$$

AZZ503-504-507>509-280200-
SOUTHEAST ARIZONA

CITY           SKY/WX    TMP DP  RH WIND       PRES   REMARKS
TUCSON         CLOUDY    96  55  25 N15       29.97F THUNDER
RYAN FIELD     SUNNY     97  57  26 N14       29.96S
NOGALES        PTSUNNY   87  57  35 CALM      30.07F
SIERRA VISTA   MOCLDY    83  57  40 N3        30.15F
SAFFORD        CLOUDY    80  60  50 W14G23    30.05R
$$

AZZ020-021-025-026-031-280200-
SOUTHWEST ARIZONA

CITY           SKY/WX    TMP DP  RH WIND       PRES   REMARKS
YUMA           NOT AVBL
$$

CAZ031-033-041-043-047-048-061-280200-
SOUTHERN CALIFORNIA

CITY           SKY/WX    TMP DP  RH WIND       PRES   REMARKS
DOWNTOWN L.A.  SUNNY     86  59  39 CALM      29.86F
L.A. AIRPORT   MOSUNNY   79  65  62 W12       29.88S
SAN DIEGO      MOSUNNY   85  61  44 W5        29.90S
BURBANK        SUNNY     93  55  27 S7        29.87F
ONTARIO        MOSUNNY   97  53  22 W13       29.87F
RIVERSIDE      SUNNY     95  57  27 W14       29.87S
PALM SPRINGS   MOSUNNY  109  57  18 SE10      29.77F HX 109
EL CENTRO NAS  MOSUNNY  107  55  18 S3        29.75F HX 106
IMPERIAL       MOSUNNY  108  58  19 W3        29.73F HX 108
BLYTHE         PTSUNNY  106  59  21 SW7       29.77F HX 106
$$

NVZ020-UTZ003-280200-
SOUTHERN NEVADA-UTAH

CITY           SKY/WX    TMP DP  RH WIND       PRES   REMARKS
LAS VEGAS      NOT AVBL
SALT LAKE CITY FAIR      86  45  23 NW8       30.13F
$$

NMZ009-TXZ055-280200-
NEW MEXICO-WEST TEXAS

CITY           SKY/WX    TMP DP  RH WIND       PRES   REMARKS
ALBUQUERQUE    CLOUDY    81  55  40 S14       30.17S
EL PASO        CLOUDY    91  52  26 SE3       30.05R
$$


........................KEY........................
SKY/WX - SKY CONDITION/WEATHER
TMP    - TEMPERATURE IN FAHRENHEIT
DP     - DEW POINT IN FAHRENHEIT
RH     - RELATIVE HUMIDITY IN PERCENT
WIND   - DIRECTION AND SPEED IN MILES PER HOUR (MPH)
VRB    - VARIABLE WIND DIRECTION
PRES   - MEAN SEA LEVEL PRESSURE IN INCHES OF MERCURY
         F - FALLING PRESSURE   R - RISING PRESSURE
         S - STEADY PRESSURE
VSB    - VISIBILITY IN MILES
HX     - HEAT INDEX IN FAHRENHEIT
WCI    - WIND CHILL INDEX IN FAHRENHEIT
TC     - TEMPERATURE IN CELSIUS WHICH IS ALSO KNOWN AS
         TEMPERATURE IN CENTIGRADE
AFB    - AIR FORCE BASE
         LUKE AFB IS LUKE AIR FORCE BASE
         DAVIS-MONTHAN IS DAVIS-MONTHAN AIR FORCE BASE
NAS    - NAVAL AIR STATION
         EL CENTRO NAS IS EL CENTRO NAVAL AIR STATION
N/A    - NOT AVAILABLE




USA.gov is the U.S. government's official web portal to all federal, state and local government web resources and services.